Regional Weather Roundup
Issued by NWS Northern Indiana

Home | Current Version | Previous Version | Graphics & Text | Print | Product List | Glossary On
Versions: 1 2 3 4 5 6 7 8 9 10 11 12 13 14 15 16 17 18 19 20 21 22 23 24 25 26 27 28 29 30 31 32 33 34 35 36 37 38 39 40 41 42 43 44 45 46 47 48 49 50
000
ASUS43 KIWX 012010
RWRIWX

KIWX WEATHER ROUNDUP
NATIONAL WEATHER SERVICE NORTHERN INDIANA
300 PM EST THU DEC 01 2016

NOTE: "FAIR" INDICATES FEW OR NO CLOUDS BELOW 12,000 FEET WITH NO
SIGNIFICANT WEATHER AND/OR OBSTRUCTIONS TO VISIBILITY.

* THESE STATIONS ARE NOT UNDER NWS QUALITY CONTROL. THEY ALSO MAY NOT
  REPORT WEATHER SUCH AS PRECIPITATION OR FOG.

INZ001>027-012100-
NORTHERN INDIANA

CITY           SKY/WX    TMP DP  RH WIND       PRES   REMARKS
GARY*          CLOUDY    43  34  70 W17G29    29.88R
VALPARAISO     CLOUDY    41  33  73 W16G22    29.88R
MICHIGAN CITY* CLOUDY    39  32  75 W10G22    29.86R
LAPORTE*       CLOUDY    41  38  89 W10G17    29.87R
KNOX*          CLOUDY    39  19  45 W14       29.88R
SOUTH BEND     LGT RAIN  38  34  85 W10       29.85R
ELKHART*       CLOUDY    39  32  75 W5G22     29.83R
GOSHEN         CLOUDY    40  31  70 W21       29.85R
MONTICELLO*    CLOUDY    40  29  63 W13G18    29.90S
LOGANSPORT*    CLOUDY    39  32  75 W15       29.91R
ROCHESTER*     CLOUDY    41  36  81 W12       29.89R
WARSAW*        CLOUDY    37  30  75 W15       29.86R
ANGOLA*        CLOUDY    39  36  87 W10       29.81S
FORT WAYNE     CLOUDY    39  31  72 W18G24    29.88R
HUNTINGTON*    CLOUDY    39  32  74 W12       29.88S
PERU/GRISSOM   CLOUDY    40  33  75 W16       29.88S
MARION*        CLOUDY    38  32  79 W15       29.91S

$$
INZ028>050-012100-
CENTRAL INDIANA

CITY           SKY/WX    TMP DP  RH WIND       PRES   REMARKS
LAFAYETTE      CLOUDY    39  31  72 W12G21    29.93R
KOKOMO*        CLOUDY    39  31  72 W16       29.91R
MUNCIE*        CLOUDY    39  30  70 W10       29.92R
INDIANAPOLIS   CLOUDY    38  29  70 W17       29.97R

$$
MIZ043>046-050>051-056>058-064>065-071>073-077>080-012100-
SOUTHWEST LOWER MICHIGAN

CITY           SKY/WX    TMP DP  RH WIND       PRES   REMARKS
BATTLE CREEK   LGT RAIN  38  36  92 W14       29.78R
BENTON HARBOR  CLOUDY    42  35  76 W21G28    29.82R
COLDWATER*     CLOUDY    39  34  84 W16       29.80R
HILLSDALE*     CLOUDY    36  32  87 W12G20    29.78R
HOLLAND        CLOUDY    42  35  76 W14       29.78R
GRAND RAPIDS   LGT RAIN  40  35  83 W14       29.76R
KALAMAZOO      LGT RAIN  40  35  83 W14G21    29.79R
STURGIS*       CLOUDY    40  34  80 W16       29.81R
THREE RIVERS*  LGT RAIN  40  37  88 W10G16    29.82R

$$
OHZ001>008-015>018-024>025-012100-
NORTHWEST OHIO

CITY           SKY/WX    TMP DP  RH WIND       PRES   REMARKS
WAUSEON*       CLOUDY    39  34  81 W21       29.81S
DEFIANCE       CLOUDY    41  32  70 W10G17    29.84R
FINDLAY        CLOUDY    40  30  67 SW24      29.85R
TOLEDO EXPRESS CLOUDY    40  33  76 W16       29.82R
TOLEDO METCALF CLOUDY    41  33  73 SW20G26   29.83R
LIMA           CLOUDY    38  31  76 W18       29.87R

$$
AND FOR LAKE MICHIGAN COASTAL AND OPEN LAKE BUOY OBSERVATIONS

STATION/POSITION TEMP    WIND        PRES    VSBY  WAVE
                 AIR SEA DIR/SP/G                  HT/PER
                 (F)     (DEG/KT/KT) (MB)    (MI)  (FT/S)
CALUMET HARBOR    41     240/  9/ 16 1011.0R
MICHIGAN CITY     40     220/ 24/ 28   N/A
BURNS HARBOR      42     250/ 18/ 21 1011.9R
SAINT JOSEPH      43     260/ 20/ 24 1010.8
SOUTH LAKE BUOY   43 49  270/ 19/ 23 1008.7R         5/ 5

$$
&&




USA.gov is the U.S. government's official web portal to all federal, state and local government web resources and services.